Waarnemingen

Advertentie
Mijn weer
Ajaccio, Frankrijk (7761): temperatuur & dauwpunt: 12.10.2019 18:00:00 - 18.10.2019 18:00:00 (CEST)Ajaccio, Frankrijk (7761): temperatuur 5cm: 12.10.2019 18:00:00 - 18.10.2019 18:00:00 (CEST)Ajaccio, Frankrijk (7761): temperatuur -20cm & temperatuur -100cm: 12.10.2019 18:00:00 - 18.10.2019 18:00:00 (CEST)Ajaccio, Frankrijk (7761): windsnelheid & windstoten: 12.10.2019 18:00:00 - 18.10.2019 18:00:00 (CEST)Ajaccio, Frankrijk (7761): windrichting: 12.10.2019 18:00:00 - 18.10.2019 18:00:00 (CEST)Ajaccio, Frankrijk (7761): luchtdruk: 12.10.2019 18:00:00 - 18.10.2019 18:00:00 (CEST)Ajaccio, Frankrijk (7761): zicht: 12.10.2019 18:00:00 - 18.10.2019 18:00:00 (CEST)Ajaccio, Frankrijk (7761): Zonneschijnduur: 12.10.2019 18:00:00 - 18.10.2019 18:00:00 (CEST)Ajaccio, Frankrijk (7761): neerslag: 12.10.2019 18:00:00 - 18.10.2019 18:00:00 (CEST)
Datum & Tijd tt [°C] td [°C] tt 5cm [°C] tt -20cm [°C] tt -100cm [°C] ff [km/u] ff [kn] fx [km/u] fx [kn] dd ppp [hPa] vv [km] sd [min] rr [mm]
18.10.2019 18:00:00 20,6 14,3 20,6 21,3 23,5 9 5 19 10 ZW 1017,5 60 0 0,0
18.10.2019 17:00:00 21,5 14,4 23,0 21,1 23,4 12 6 22 12 ZW 1017,6 60 34 0,0
18.10.2019 16:00:00 22,6 14,7 24,7 20,9 23,5 15 8 29 15 ZW 1017,5 46 60 0,0
18.10.2019 15:00:00 23,1 14,6 27,2 20,8 23,5 18 10 26 14 ZW 1017,7 50 60 0,0
18.10.2019 14:00:00 22,5 13,8 29,6 20,8 23,5 16 9 22 12 WZW 1017,8 57 60 0,0
18.10.2019 13:00:00 23,0 13,7 31,3 20,8 23,5 14 7 22 12 ZZW 1018,7 60 60 0,0
18.10.2019 12:00:00 22,4 13,2 29,6 20,9 23,5 12 6 19 11 ZW 1019,2 60 60 0,0
18.10.2019 11:00:00 22,1 11,5 23,8 21,0 23,5 3 2 11 6 N 1019,0 48 60 0,0
18.10.2019 10:00:00 17,8 10,2 15,7 21,0 23,5 8 4 19 10 NO 1019,2 30 57 0,0
18.10.2019 09:00:00 13,9 9,3 11,7 21,2 23,5 11 6 21 11 NNO 1018,8 46 41 0,0
18.10.2019 08:00:00 12,3 8,9 11,4 21,4 23,5 12 6 20 11 NO 1018,5 58 0 0,0
18.10.2019 07:00:00 12,3 8,9 11,4 21,5 23,5 12 7 19 10 NO 1018,2 60 0 0,0
18.10.2019 06:00:00 13,6 9,0 11,9 21,6 23,6 10 6 23 12 NNO 1018,4 60 0 0,0
18.10.2019 05:00:00 13,0 9,4 12,1 21,7 23,6 14 7 19 11 NNO 1018,7 60 0 0,0
18.10.2019 04:00:00 13,1 9,9 12,2 21,8 23,6 10 6 20 11 NO 1019,1 60 0 0,0
18.10.2019 03:00:00 13,3 10,1 12,4 21,9 23,6 13 7 19 10 NO 1019,4 56 0 0,0
18.10.2019 02:00:00 13,4 10,4 12,5 22,0 23,6 13 7 19 10 NO 1019,7 59 0 0,0
18.10.2019 01:00:00 13,6 10,9 12,9 22,1 23,6 11 6 21 12 NO 1019,6 53 0 0,0
18.10.2019 00:00:00 14,0 11,5 13,1 22,1 23,6 11 6 18 10 NO 1019,9 43 0 0,0
17.10.2019 23:00:00 14,5 12,0 13,4 22,1 23,6 11 6 17 9 NO 1020,0 36 0 0,0
17.10.2019 22:00:00 15,5 12,3 14,6 22,1 23,6 11 6 16 9 NO 1019,8 34 0 0,0
17.10.2019 21:00:00 16,5 12,8 15,6 21,9 23,6 9 5 16 9 NNO 1019,5 37 0 0,0
17.10.2019 20:00:00 18,2 13,5 16,3 21,8 23,6 6 3 10 5 NNO 1019,4 59 0 0,0
17.10.2019 19:00:00 19,7 13,6 17,2 21,5 23,6 3 1 13 7 Z 1019,0 3,0 19 0,0
17.10.2019 18:00:00 21,3 14,5 21,1 21,3 23,6 11 6 21 11 ZZW 1019,0 60 57 0,0
17.10.2019 17:00:00 22,3 14,9 24,0 21,0 23,6 14 8 28 15 ZW 1019,2 44 60 0,0
17.10.2019 16:00:00 22,9 15,0 24,7 20,9 23,6 18 10 32 17 ZW 1019,3 38 60 0,0
17.10.2019 15:00:00 23,1 14,1 27,6 20,7 23,6 19 10 30 16 ZW 1019,4 37 60 0,0
17.10.2019 14:00:00 23,0 13,7 30,1 20,6 23,6 18 10 25 13 ZW 1019,7 20 60 0,0
17.10.2019 13:00:00 23,1 12,4 29,4 20,7 23,7 12 7 19 10 WZW 1020,1 60 60 0,0
17.10.2019 12:00:00 22,0 11,7 28,3 20,7 23,7 10 5 16 9 W 1020,5 60 60 0,0
17.10.2019 11:00:00 22,3 10,4 24,5 20,8 23,7 4 2 13 7 NNO 1020,7 56 60 0,0
17.10.2019 10:00:00 18,8 9,6 17,5 20,9 23,7 10 6 19 10 NNO 1020,6 60 60 0,0
17.10.2019 09:00:00 14,8 8,9 11,9 21,0 23,7 11 6 23 12 NNO 1020,4 57 55 0,0
17.10.2019 08:00:00 12,6 8,3 11,9 21,2 23,7 14 7 22 12 NO 1019,9 60 0 0,0
17.10.2019 07:00:00 13,2 8,5 12,2 21,2 23,7 13 7 22 12 NNO 1019,7 60 0 0,0
17.10.2019 06:00:00 13,2 8,9 12,4 21,3 23,7 13 7 21 11 NNO 1020,0 60 0 0,0
17.10.2019 05:00:00 13,7 9,1 12,9 21,4 23,7 11 6 21 11 NO 1020,1 60 0 0,0
17.10.2019 04:00:00 14,4 9,6 13,4 21,5 23,7 13 7 20 11 NNO 1020,1 60 0 0,0
17.10.2019 03:00:00 14,7 9,7 14,0 21,6 23,7 11 6 19 10 NO 1020,5 60 0 0,0
17.10.2019 02:00:00 15,3 9,6 14,3 21,7 23,7 10 5 19 10 NO 1020,6 60 0 0,0
17.10.2019 01:00:00 15,1 9,7 14,5 21,7 23,7 10 5 17 9 NNO 1020,4 60 0 0,0
17.10.2019 00:00:00 15,3 9,6 14,3 21,8 23,8 11 6 18 10 NNO 1020,5 60 0 0,0
16.10.2019 23:00:00 14,6 9,8 14,0 21,8 23,8 11 6 20 11 NNO 1020,2 51 0 0,0
16.10.2019 22:00:00 14,8 9,6 13,8 21,8 23,8 12 6 18 10 NNO 1020,0 52 0 0,0
16.10.2019 21:00:00 15,2 9,5 14,1 21,7 23,8 11 6 18 10 NO 1019,9 46 0 0,0
16.10.2019 20:00:00 16,9 10,5 15,7 21,6 23,8 8 5 16 9 NO 1019,7 51 0 0,0
16.10.2019 19:00:00 19,1 11,1 17,3 21,5 23,8 8 5 16 9 ZW 1019,2 36 22 0,0
16.10.2019 18:00:00 21,0 10,8 20,5 21,4 23,8 11 6 26 14 WZW 1019,3 37 60 0,0
16.10.2019 17:00:00 21,9 9,8 21,0 21,2 23,8 7 4 20 11 W 1019,5 53 46 0,0
16.10.2019 16:00:00 21,7 9,6 21,4 21,2 23,8 8 4 27 14 W 1019,5 60 50 0,0
16.10.2019 15:00:00 22,2 10,3 22,1 21,0 23,8 14 8 26 14 N 1019,9 60 43 0,0
16.10.2019 14:00:00 21,0 9,6 22,7 21,1 23,8 16 8 27 14 WNW 1020,0 57 31 0,0
16.10.2019 13:00:00 20,6 9,2 22,5 21,1 23,8 17 9 30 16 WNW 1020,4 55 29 0,0
16.10.2019 12:00:00 21,1 9,7 22,3 21,2 23,8 17 9 31 17 NW 1020,4 20 33 0,0
16.10.2019 11:00:00 20,8 10,6 21,6 21,3 23,8 8 4 19 11 NNO 1020,1 33 57 0,0
16.10.2019 10:00:00 17,3 12,2 18,3 21,4 23,8 9 5 17 9 NNO 1019,9 38 50 0,0
16.10.2019 09:00:00 14,2 10,8 11,6 21,5 23,8 11 6 21 11 NO 1019,7 55 45 0,0
16.10.2019 08:00:00 12,1 9,7 11,1 21,7 23,8 9 5 20 11 NO 1019,1 41 0 0,0
16.10.2019 07:00:00 12,3 9,8 11,4 21,8 23,8 10 5 22 12 NO 1018,4 55 0 0,0
16.10.2019 06:00:00 12,7 10,2 11,5 21,9 23,8 13 7 21 12 NNO 1018,1 55 0 0,0
16.10.2019 05:00:00 12,5 10,4 11,5 22,1 23,8 10 6 17 9 ONO 1017,9 37 0 0,0
16.10.2019 04:00:00 13,2 11,3 12,2 22,2 23,8 10 6 18 10 NO 1018,2 43 0 0,0
16.10.2019 03:00:00 13,4 11,5 12,4 22,3 23,8 9 5 17 9 NO 1018,2 43 0 0,0
16.10.2019 02:00:00 13,6 11,6 12,7 22,5 23,8 8 4 17 9 NO 1018,2 32 0 0,0
16.10.2019 01:00:00 13,8 12,0 13,0 22,6 23,8 11 6 19 10 NO 1018,1 32 0 0,0
16.10.2019 00:00:00 13,9 12,1 12,9 22,6 23,8 9 5 13 7 NO 1018,1 24 0 0,0
15.10.2019 23:00:00 13,9 12,3 12,8 22,7 23,8 9 5 13 7 ONO 1017,8 28 0 0,0
15.10.2019 22:00:00 14,6 12,5 13,3 22,7 23,9 5 3 9 5 O 1017,5 24 0 0,0
15.10.2019 21:00:00 16,1 13,0 13,2 22,7 23,8 5 3 9 5 NNO 1016,7 27 0 0,0
15.10.2019 20:00:00 17,4 13,3 15,2 22,7 23,9 5 3 29 15 NO 1016,3 36 0 0,0
15.10.2019 19:00:00 19,3 14,3 18,4 22,7 23,9 19 11 36 19 W 1015,4 20 0 0,0
15.10.2019 18:00:00 20,9 15,2 21,3 22,6 23,9 18 10 26 14 WZW 1014,6 20 44 0,0
15.10.2019 17:00:00 20,7 15,5 21,0 22,5 23,9 11 6 32 17 NNW 1014,4 39 1 0,0
15.10.2019 16:00:00 20,6 16,6 19,8 22,4 23,8 20 11 48 26 NW 1014,1 30 0 0,0
15.10.2019 15:00:00 21,1 18,1 20,6 22,4 23,9 36 19 57 31 W 1012,4 17 18 1,6
15.10.2019 14:00:00 25,0 18,9 26,2 22,4 23,9 31 17 46 25 ZZW 1012,4 17 21 0,0
15.10.2019 13:00:00 25,3 18,5 24,8 22,4 23,9 26 14 45 25 Z 1013,2 19 16 0,0
15.10.2019 12:00:00 24,0 17,3 20,3 22,4 23,9 25 14 43 23 Z 1013,8 20 0 0,2
15.10.2019 11:00:00 24,3 15,8 22,6 22,5 23,9 16 9 33 18 ZZW 1013,3 33 7 0,0
15.10.2019 10:00:00 21,5 14,2 21,2 22,6 23,9 7 4 18 10 ONO 1013,4 31 7 0,0
15.10.2019 09:00:00 20,4 13,4 18,1 22,7 23,9 8 4 21 12 NO 1013,6 35 15 0,0
15.10.2019 08:00:00 18,6 12,8 17,2 22,9 23,9 8 5 21 11 NNO 1013,2 37 0 0,0
15.10.2019 07:00:00 18,0 12,4 16,6 22,9 23,9 10 5 19 10 NO 1013,1 44 0 0,0
15.10.2019 06:00:00 16,6 12,9 15,4 23,1 23,9 11 6 21 11 NO 1014,1 38 0 0,0
15.10.2019 05:00:00 16,2 13,1 14,8 23,1 23,9 9 5 13 7 NNO 1014,0 28 0 0,0
15.10.2019 04:00:00 16,4 12,7 15,5 23,2 23,9 4 2 11 6 O 1014,4 31 0 0,0
15.10.2019 03:00:00 16,6 12,7 15,3 23,3 23,9 6 3 10 5 NO 1014,7 29 0 0,0
15.10.2019 02:00:00 17,7 13,0 15,7 23,4 23,9 5 3 8 4 ONO 1015,2 34 0 0,0
15.10.2019 01:00:00 18,4 13,3 17,0 23,4 24,0 7 4 19 10 ONO 1015,3 40 0 0,0
15.10.2019 00:00:00 18,4 13,7 17,0 23,4 24,0 12 7 17 9 NO 1015,5 37 0 0,0
14.10.2019 23:00:00 18,0 13,5 16,6 23,4 23,9 11 6 18 10 NO 1015,8 31 0 0,0
14.10.2019 22:00:00 18,9 13,3 17,8 23,3 24,0 8 4 10 5 NO 1016,1 27 0 0,0
14.10.2019 21:00:00 19,8 13,5 18,5 23,2 24,0 5 3 14 8 ONO 1015,9 32 0 0,0
14.10.2019 20:00:00 20,6 13,8 19,4 23,0 24,0 10 5 13 7 NO 1015,9 37 0 0,0
14.10.2019 19:00:00 22,3 15,2 20,2 22,7 24,0 3 2 11 6 NW 1015,6 41 15 0,0
14.10.2019 18:00:00 24,7 16,7 24,6 22,5 24,0 6 4 16 9 ZW 1015,8 44 60 0,0
14.10.2019 17:00:00 25,7 16,0 27,4 22,2 24,0 12 6 19 11 ZZW 1016,1 60 60 0,0
14.10.2019 16:00:00 27,0 15,7 28,1 22,0 24,0 13 7 21 11 Z 1016,8 54 60 0,0
14.10.2019 15:00:00 27,0 17,8 31,0 21,8 24,0 14 8 26 14 Z 1017,1 60 60 0,0
14.10.2019 14:00:00 26,5 18,1 31,9 21,7 24,0 17 9 24 13 Z 1017,5 56 60 0,0
14.10.2019 13:00:00 25,7 16,8 33,0 21,7 24,0 14 7 19 11 ZZW 1018,2 56 60 0,0
14.10.2019 12:00:00 24,8 16,0 31,8 21,8 24,0 14 7 19 11 ZW 1018,8 60 33 0,0
14.10.2019 11:00:00 24,9 12,5 30,0 21,8 24,0 7 4 12 7 WZW 1018,9 47 60 0,0
14.10.2019 10:00:00 22,6 11,0 21,7 21,9 24,0 3 2 13 7 NW 1019,3 43 60 0,0
14.10.2019 09:00:00 17,6 11,6 14,8 22,0 24,0 8 4 18 10 NO 1019,2 30 39 0,0
14.10.2019 08:00:00 15,1 10,5 12,9 22,2 24,0 12 7 21 11 NO 1018,8 35 0 0,0
14.10.2019 07:00:00 13,9 10,1 12,9 22,3 24,1 14 7 21 11 NO 1018,9 48 0 0,0
14.10.2019 06:00:00 14,5 9,7 13,3 22,4 24,1 7 4 18 10 NO 1019,3 41 0 0,0
14.10.2019 05:00:00 14,9 9,7 13,8 22,4 24,0 12 7 20 11 NO 1019,1 54 0 0,0
14.10.2019 04:00:00 15,9 10,2 14,5 22,5 24,1 11 6 21 12 NO 1019,3 58 0 0,0
14.10.2019 03:00:00 16,0 11,0 14,9 22,6 24,1 13 7 19 10 NO 1019,7 53 0 0,0
14.10.2019 02:00:00 16,2 11,1 15,1 22,7 24,1 8 4 10 5 NO 1020,2 43 0 0,0
14.10.2019 01:00:00 17,5 11,5 16,0 22,7 24,1 6 3 17 9 O 1020,1 54 0 0,0
14.10.2019 00:00:00 17,3 12,2 15,8 22,7 24,1 11 6 20 11 NO 1020,1 51 0 0,0
13.10.2019 23:00:00 17,1 12,2 15,3 22,7 24,1 10 6 17 9 NNO 1020,4 56 0 0,0
13.10.2019 22:00:00 17,8 12,3 16,8 22,6 24,1 12 6 17 9 NO 1020,4 57 0 0,0
13.10.2019 21:00:00 18,3 12,7 17,2 22,5 24,1 13 7 19 10 NO 1020,3 59 0 0,0
13.10.2019 20:00:00 19,2 13,4 17,5 22,4 24,1 8 4 11 6 ONO 1020,2 60 0 0,0
13.10.2019 19:00:00 21,6 17,0 20,1 22,2 24,1 7 4 14 8 ZZO 1020,1 60 20 0,0
13.10.2019 18:00:00 23,9 16,9 24,0 22,1 24,1 11 6 19 10 Z 1019,7 60 54 0,0
13.10.2019 17:00:00 23,6 16,9 25,4 21,9 24,1 13 7 16 9 W 1019,5 59 50 0,0
13.10.2019 16:00:00 23,4 15,7 24,9 21,8 24,1 9 5 26 14 Z 1020,3 60 12 0,0
13.10.2019 15:00:00 23,4 16,9 25,7 21,7 24,1 15 8 23 12 Z 1020,7 57 19 0,0
13.10.2019 14:00:00 23,5 13,9 27,6 21,7 24,1 9 5 16 9 ZZW 1021,0 60 0 0,0
13.10.2019 13:00:00 23,3 12,6 27,2 21,7 24,1 10 5 20 11 WZW 1021,5 56 7 0,0
13.10.2019 12:00:00 23,5 10,9 27,7 21,8 24,1 6 3 13 7 WZW 1021,4 59 20 0,0
13.10.2019 11:00:00 24,2 9,0 21,6 21,9 24,1 8 4 16 9 NNO 1021,5 60 60 0,0
13.10.2019 10:00:00 17,8 9,2 16,9 22,1 24,2 10 5 19 10 NO 1021,7 20 54 0,0
13.10.2019 09:00:00 13,9 8,7 11,9 22,2 24,2 14 7 19 11 NO 1021,9 56 11 0,0
13.10.2019 08:00:00 12,2 8,7 11,3 22,3 24,2 13 7 19 10 NO 1021,7 60 0 0,0
13.10.2019 07:00:00 12,8 8,5 12,0 22,5 24,2 13 7 18 10 NO 1021,1 60 0 0,0
13.10.2019 06:00:00 13,2 8,7 11,7 22,6 24,2 14 8 20 11 NO 1021,0 60 0 0,0
13.10.2019 05:00:00 12,6 9,6 11,7 22,7 24,2 11 6 16 9 NO 1021,5 60 0 0,0
13.10.2019 04:00:00 13,4 9,8 12,2 22,8 24,2 6 3 14 8 ONO 1021,8 60 0 0,0
13.10.2019 03:00:00 13,3 10,3 12,6 22,9 24,2 12 6 19 11 NO 1021,9 60 0 0,0
13.10.2019 02:00:00 14,0 10,8 13,0 23,0 24,2 9 5 16 9 NO 1022,0 60 0 0,0
13.10.2019 01:00:00 14,6 11,4 13,1 23,0 24,2 10 5 20 11 NO 1022,1 49 0 0,0
13.10.2019 00:00:00 14,5 12,0 13,6 23,0 24,2 10 5 17 9 NO 1022,5 50 0 0,0
12.10.2019 23:00:00 16,2 12,7 15,2 23,0 24,2 7 4 16 9 NO 1022,4 49 0 0,0
12.10.2019 22:00:00 16,4 12,7 15,4 23,0 24,2 10 6 17 9 NO 1022,5 42 0 0,0
12.10.2019 21:00:00 17,7 13,6 16,7 22,9 24,3 9 5 14 8 NO 1022,5 47 0 0,0
12.10.2019 20:00:00 19,2 13,8 17,9 22,7 24,2 5 3 9 5 O 1022,4 56 0 0,0
12.10.2019 19:00:00 20,6 14,5 18,7 22,5 24,3 3 2 7 4 ZZW 1022,2 19 4 0,0
12.10.2019 18:00:00 21,3 14,7 22,0 22,3 24,3 4 2 20 11 ZW 1022,0 60 11 0,0

tt = temperatuur
td = dauwpunt
tt 5cm = temperatuur 5cm
tt -20cm = temperatuur -20cm
tt -100cm = temperatuur -100cm
ff = windsnelheid
fx = windstoten
dd = windrichting
ppp = luchtdruk
vv = zicht
sd = Zonneschijnduur
rr = neerslag

Weerstations in de omgeving